Lomas de Zamora, Argentina

8:09 PM -03 on October 22, 2017 (GMT -0300)
Lomas de Zamora

Weather History for 87576 - February, 2013

Change the Weather History Date:

Sunday, February 17, 2013

  Actual Average Record
Temperature  
Mean Temperature 76 °F -  
Max Temperature 84 °F 81 °F - ()
Min Temperature 68 °F 60 °F - ()
Cooling Degree Days 11    
Growing Degree Days 26 (Base 50)    
Moisture  
Dew Point 64 °F    
Average Humidity 64    
Maximum Humidity 88    
Minimum Humidity 47    
Precipitation  
Precipitation 0.00 in 0.14 in - ()
Sea Level Pressure  
Sea Level Pressure 29.72 in    
Wind  
Wind Speed 7 mph ()    
Max Wind Speed 21 mph    
Max Gust Speed 32 mph    
Visibility 6.1 miles    
Events      
T = Trace of Precipitation, MM = Missing Value Source: Averaged Metar Reports

Daily Weather History Graph

Daily Weather History Graph

Search for Another Location

Airport or City:

Trip Planner

Search our weather history database for the weather conditions in past years. The results will help you decide how hot, cold, wet, or windy it might be!

Date:

Astronomy

Feb. 17, 2013 Rise Set
Actual Time 6:30 AM -03 7:45 PM -03
Civil Twilight 6:04 AM -03 8:11 PM -03
Nautical Twilight 5:32 AM -03 8:42 PM -03
Astronomical Twilight 4:59 AM -03 9:15 PM -03
Moon 1:39 PM -03 (2/17) No Moon Set
Length of Visible Light 14h 07m
Length of Day
13h 14m
Waxing Crescent, 48% of the Moon is Illuminated
Feb 17
Waxing Crescent
Feb 17
First Quarter
Feb 25
Full
Mar 4
Last Quarter
Mar 11
New

Hourly Weather History & Observations

Time (-03) Temp. Heat Index Dew Point Humidity Pressure Visibility Wind Dir Wind Speed Gust Speed Precip Events Conditions
12:00 AM 78 °F - 70 °F 69% 29.62 in 6 mi WSW 4.6 mph - -   Partly Cloudy
12:00 AM 78.8 °F - 69.8 °F 74% 29.59 in 6.2 mi WSW 4.6 mph - N/A   Mostly Cloudy
1:00 AM 77.0 °F - 69.8 °F 78% 29.62 in - West 2.3 mph - N/A   Clear
2:00 AM 75.2 °F - 69.8 °F 83% 29.62 in - WSW 5.8 mph - N/A   Clear
3:00 AM 73.4 °F - 68.0 °F 83% 29.62 in - WSW 4.6 mph - N/A   Clear
4:00 AM 73.4 °F - 68.0 °F 83% 29.62 in 6.2 mi West 5.8 mph - N/A   Partly Cloudy
5:00 AM 73.4 °F - 68.0 °F 83% 29.68 in 6.2 mi WSW 10.4 mph - N/A   Partly Cloudy
6:00 AM 71 °F - 63 °F 68% 29.68 in 6 mi WSW 5.8 mph - -   Mostly Cloudy
6:00 AM 71.6 °F - 62.6 °F 73% 29.68 in 6.2 mi WSW 5.8 mph - N/A   Partly Cloudy
7:00 AM 69.8 °F - 66.2 °F 88% 29.65 in - WSW 2.3 mph - N/A   Clear
8:00 AM 73.4 °F - 66.2 °F 78% 29.68 in - West 5.8 mph - N/A   Clear
9:00 AM 74 °F - 64 °F 62% 29.70 in 6 mi SW 4.6 mph - -   Scattered Clouds
9:00 AM 75.2 °F - 64.4 °F 69% 29.71 in - WSW 4.6 mph - N/A   Clear
10:00 AM 77.0 °F - 62.6 °F 61% 29.71 in - SW 9.2 mph - N/A   Clear
11:00 AM 82.4 °F 84.6 °F 66.2 °F 58% 29.71 in - South 12.7 mph - N/A   Clear
12:00 PM 82.4 °F 84.6 °F 66.2 °F 58% 29.74 in - South 6.9 mph - N/A   Clear
1:00 PM 82.4 °F 84.6 °F 66.2 °F 58% 29.74 in 6.2 mi SSW 8.1 mph - N/A   Mostly Cloudy
2:00 PM 84.2 °F 87.3 °F 68.0 °F 58% 29.74 in 6.2 mi South 5.8 mph - N/A   Mostly Cloudy
3:00 PM 84 °F - 67 °F 47% 29.73 in 6 mi SW 8.1 mph - -   Overcast
3:00 PM 84.2 °F 86.6 °F 66.2 °F 55% 29.71 in 6.2 mi SSW 9.2 mph - N/A   Mostly Cloudy
4:00 PM 84.2 °F 85.0 °F 62.6 °F 48% 29.71 in - SSW 17.3 mph - N/A   Clear
5:00 PM 82.4 °F 82.9 °F 60.8 °F 48% 29.71 in - SSW 20.7 mph - N/A   Clear
6:00 PM 80.6 °F 81.5 °F 60.8 °F 51% 29.74 in - SSW 17.3 mph 27.6 mph N/A   Clear
7:00 PM 75.2 °F - 57.2 °F 53% 29.80 in - South 19.6 mph 32.2 mph N/A   Clear
8:00 PM 73.4 °F - 51.8 °F 47% 29.83 in - South 17.3 mph - N/A   Clear
9:00 PM 71 °F - 56 °F 50% 29.89 in 6 mi South 15.0 mph - -   Overcast
9:00 PM 71.6 °F - 55.4 °F 57% 29.89 in - South 15.0 mph - N/A   Clear
10:00 PM 68.0 °F - 55.4 °F 64% 29.92 in - SSE 18.4 mph - N/A   Clear
11:00 PM 68.0 °F - 55.4 °F 64% 29.95 in - SSE 13.8 mph - N/A   Clear